Terminal Aerodrome Forecast
Issued by NWS Goodland, KS

Home | Current Version | Previous Version | Text Only | Print | Product List | Glossary On
Versions: 1 2 3 4 5 6 7 8 9 10 11 12 13 14 15 16 17 18 19 20
000
FTUS43 KGLD 242331
TAFGLD
TAF
KGLD 242331Z 2500/2524 12011KT P6SM SKC
     FM250500 14008KT P6SM VCTS BKN080CB
     FM251100 09008KT P6SM BKN150
     FM251600 08013KT P6SM SCT100=

USA.gov is the U.S. government's official web portal to all federal, state and local government web resources and services.